Eufaula, AL

3:09 PM CDT on September 25, 2016 (GMT -0500)
Weedon

Weather History for KEUF - December, 2012

Change the Weather History Date:

Saturday, December 1, 2012

  Actual Average (KLSF) Record (KLSF)
Temperature  
Mean Temperature 65 °F -  
Max Temperature 84 °F 63 °F 78 °F (1998)
Min Temperature 46 °F 36 °F 24 °F (1999)
Growing Degree Days 15 (Base 50)    
Moisture  
Dew Point 46 °F    
Average Humidity 64    
Maximum Humidity 83    
Minimum Humidity 28    
Precipitation  
Precipitation 0.01 in - - ()
Sea Level Pressure  
Sea Level Pressure 30.28 in    
Wind  
Wind Speed 1 mph (SSW)    
Max Wind Speed 4 mph    
Max Gust Speed -    
Visibility 9 miles    
Events      
Averages and records for this station are not official NWS values.
T = Trace of Precipitation, MM = Missing Value Source: NWS Daily Summary

Daily Weather History Graph

Daily Weather History Graph

Search for Another Location

Airport or City:

Trip Planner

Search our weather history database for the weather conditions in past years. The results will help you decide how hot, cold, wet, or windy it might be!

Date:

Astronomy

Dec. 01, 2012 Rise Set
Actual Time 6:23 AM CST 4:35 PM CST
Civil Twilight 5:56 AM CST 5:02 PM CST
Nautical Twilight 5:26 AM CST 5:32 PM CST
Astronomical Twilight 4:57 AM CST 6:02 PM CST
Moon 7:22 PM CST (12/1) 8:37 AM CST (12/1)
Length of Visible Light 11h 05m
Length of Day
10h 12m
Waning Gibbous, 91% of the Moon is Illuminated
Dec 1
Waning Gibbous
Dec 6
Last Quarter
Dec 13
New
Dec 19
First Quarter
Dec 28
Full

Hourly Weather History & Observations

Time (CST) Temp. Heat Index Dew Point Humidity Pressure Visibility Wind Dir Wind Speed Gust Speed Precip Events Conditions
12:58 AM 48.9 °F - 44.1 °F 83% 30.25 in 8.0 mi Calm Calm - N/A   Clear
1:58 AM 48.9 °F - 42.1 °F 77% 30.26 in 6.0 mi Calm Calm - N/A   Haze
2:58 AM 48.9 °F - 42.1 °F 77% 30.26 in 6.0 mi Calm Calm - N/A   Haze
3:58 AM 48.0 °F - 41.0 °F 77% 30.27 in 5.0 mi Calm Calm - 0.01 in   Haze
4:58 AM 48.0 °F - 41.0 °F 77% 30.28 in 5.0 mi Calm Calm - N/A   Haze
5:58 AM 46.9 °F - 39.9 °F 77% 30.30 in 5.0 mi Calm Calm - 0.00 in   Haze
6:58 AM 46.9 °F - 41.0 °F 80% 30.32 in 4.0 mi Calm Calm - N/A   Haze
7:58 AM 59.0 °F - 48.9 °F 69% 30.32 in 9.0 mi Calm Calm - 0.00 in   Clear
8:58 AM 68.0 °F - 52.0 °F 56% 30.32 in 10.0 mi Calm Calm - N/A   Clear
9:58 AM 73.9 °F - 55.0 °F 52% 30.32 in 10.0 mi Calm Calm - N/A   Clear
10:58 AM 81.0 °F 80.5 °F 54.0 °F 39% 30.31 in 10.0 mi Variable 3.5 mph - N/A   Clear
11:58 AM 84.0 °F - 48.0 °F 28% 30.28 in 10.0 mi Variable 3.5 mph - N/A   Clear
12:58 PM 81.0 °F - 48.0 °F 31% 30.26 in 10.0 mi South 3.5 mph - N/A   Clear
1:58 PM 80.1 °F - 46.9 °F 31% 30.25 in 10.0 mi SSW 3.5 mph - N/A   Partly Cloudy
2:58 PM 80.1 °F - 46.0 °F 30% 30.24 in 10.0 mi SSW 3.5 mph - N/A   Clear
3:58 PM 75.9 °F - 46.9 °F 36% 30.25 in 10.0 mi Calm Calm - N/A   Clear
4:58 PM 63.0 °F - 51.1 °F 65% 30.25 in 10.0 mi Calm Calm - N/A   Clear
5:58 PM 57.9 °F - 48.9 °F 72% 30.27 in 10.0 mi Calm Calm - N/A   Clear
6:58 PM 55.0 °F - 46.9 °F 74% 30.27 in 10.0 mi Calm Calm - N/A   Clear
7:58 PM 53.1 °F - 46.9 °F 80% 30.27 in 10.0 mi Calm Calm - N/A   Clear
8:58 PM 53.1 °F - 45.0 °F 74% 30.28 in 10.0 mi Calm Calm - N/A   Mostly Cloudy
9:58 PM 53.1 °F - 46.9 °F 80% 30.28 in 10.0 mi Calm Calm - N/A   Overcast
10:58 PM 52.0 °F - 46.0 °F 80% 30.28 in 10.0 mi Calm Calm - N/A   Clear
11:58 PM 51.1 °F - 45.0 °F 80% 30.30 in 8.0 mi Calm Calm - N/A   Scattered Clouds